Regional Weather Roundup
Issued by NWS

Home | Current Version | Previous Version | Graphics & Text | Print | Product List | Glossary On
Versions: 1 2 3 4 5 6 7 8 9 10 11 12 13 14 15 16 17 18 19 20 21 22 23 24 25 26 27
000
ASUS45 KPSR 260410
RWRAZ

ARIZONA HOURLY REGIONAL WEATHER ROUNDUP
NATIONAL WEATHER SERVICE PHOENIX AZ
900 PM MST THU AUG 25 2016

NOTE: FAIR INDICATES FEW OR NO CLOUDS BELOW 12,000 FEET WITH NO
SIGNIFICANT WEATHER AND/OR OBSTRUCTIONS TO VISIBILITY.

AZZ001>003-036-260500-
NORTHWEST ARIZONA

CITY           SKY/WX    TMP DP  RH WIND       PRES   REMARKS
BULLHEAD CITY  PTCLDY    99  46  16 S13       29.74R
KINGMAN        PTCLDY    82  50  32 S10       29.97R
$$

AZZ004>008-015-016-018-260500-
NORTH CENTRAL ARIZONA

CITY           SKY/WX    TMP DP  RH WIND       PRES   REMARKS
GRAND CANYON     N/A    N/A N/A N/A MISG      30.30R
PRESCOTT       PTCLDY    66  53  63 E6        30.15R
FLAGSTAFF      CLOUDY    53  49  86 NE7       30.31S
PAYSON         CLEAR     70  54  56 N6        30.19R
PAGE           CLOUDY    65  53  65 S8        30.18S
$$

AZZ009>014-017-260500-
NORTHEAST ARIZONA

CITY           SKY/WX    TMP DP  RH WIND       PRES   REMARKS
WINSLOW        CLOUDY    64  53  67 NW12      30.20R
SAINT JOHNS    CLOUDY    67  47  48 N6        30.21R
WINDOW ROCK    CLOUDY    58  47  66 NE3       30.32R
SHOW LOW       MOCLDY    55  50  82 CALM      30.27S
$$

AZZ023-260500-
GREATER PHOENIX AREA

CITY           SKY/WX    TMP DP  RH WIND       PRES   REMARKS
PHOENIX        PTCLDY    95  55  26 SW3       29.81R
BUCKEYE        CLEAR     91  54  27 SW9       29.83R
LUKE AFB       CLEAR     94  54  25 S7        29.81R
DEER VALLEY    PTCLDY    91  53  27 N8        29.84R
SCOTTSDALE     PTCLDY    93  53  25 CALM      29.86R
MESA-GATEWAY   PTCLDY    93  52  24 N5        29.85R
CHANDLER       CLEAR     95  52  23 SW7       29.83
$$

AZZ027-028-260500-
SOUTHWEST MARICOPA COUNTY AND PINAL COUNTY

CITY           SKY/WX    TMP DP  RH WIND       PRES   REMARKS
CASA GRANDE    MOCLDY    91  48  22 NW3       29.87R
GILA BEND      CLEAR     94  57  28 SW9       29.81R
$$

AZZ503-504-507>509-260500-
SOUTHEAST ARIZONA

CITY           SKY/WX    TMP DP  RH WIND       PRES   REMARKS
TUCSON         CLOUDY    87  55  33 S13       29.98R
DAVIS-MONTHAN  PTCLDY    85  55  35 S7        29.97R
NOGALES        MOCLDY    73  56  54 CALM      30.09R
SIERRA VISTA   MOCLDY    73  50  45 W7        30.15R
DOUGLAS        PTCLDY    68  55  63 W7        30.10R
SAFFORD        CLOUDY    80  54  40 NW18G24   30.00R
$$

AZZ020-021-025-026-031-260500-
SOUTHWEST ARIZONA

CITY           SKY/WX    TMP DP  RH WIND       PRES   REMARKS
YUMA           PTCLDY    91  56  30 S10       29.77R
$$

CAZ031-033-041-043-047-048-061-260500-
SOUTHERN CALIFORNIA

CITY           SKY/WX    TMP DP  RH WIND       PRES   REMARKS
DOWNTOWN L.A.  PTCLDY    67  61  81 VRB3      29.91R
L.A. AIRPORT   MOCLDY    66  60  81 VRB6      29.91R
SAN DIEGO      MOCLDY    67  59  75 W6        29.94R
BURBANK        CLEAR     67  60  78 SE8       29.91R
ONTARIO        CLEAR     69  58  67 SW7       29.92R
RIVERSIDE      CLEAR     70  57  63 VRB3      29.92R
PALM SPRINGS   CLEAR     92  45  19 NW17      29.77R
EL CENTRO NAS  CLEAR     93  45  19 S6        29.76R
IMPERIAL       CLEAR     95  58  28 S6        29.73R
BLYTHE         CLEAR     96  53  23 S14       29.76R
NEEDLES        PTCLDY    98  49  18 SW8       29.76R
$$

NVZ020-UTZ003-260500-
SOUTHERN NEVADA-UTAH

CITY           SKY/WX    TMP DP  RH WIND       PRES   REMARKS
LAS VEGAS      PTCLDY    93  30  10 S3        29.79R
SALT LAKE CITY PTCLDY    73  36  25 SE6       30.00R
$$

NMZ009-TXZ055-260500-
NEW MEXICO-WEST TEXAS

CITY           SKY/WX    TMP DP  RH WIND       PRES   REMARKS
ALBUQUERQUE    MOCLDY    72  48  42 E13       30.17R
EL PASO        MOCLDY    75  53  46 S7        30.11R
$$


........................KEY........................
SKY/WX - SKY CONDITION/WEATHER
TMP    - TEMPERATURE IN FAHRENHEIT
DP     - DEW POINT IN FAHRENHEIT
RH     - RELATIVE HUMIDITY IN PERCENT
WIND   - DIRECTION AND SPEED IN MILES PER HOUR (MPH)
VRB    - VARIABLE WIND DIRECTION
PRES   - MEAN SEA LEVEL PRESSURE IN INCHES OF MERCURY
         F - FALLING PRESSURE   R - RISING PRESSURE
         S - STEADY PRESSURE
VSB    - VISIBILITY IN MILES
HX     - HEAT INDEX IN FAHRENHEIT
WCI    - WIND CHILL INDEX IN FAHRENHEIT
TC     - TEMPERATURE IN CELSIUS WHICH IS ALSO KNOWN AS
         TEMPERATURE IN CENTIGRADE
AFB    - AIR FORCE BASE
         LUKE AFB IS LUKE AIR FORCE BASE
         DAVIS-MONTHAN IS DAVIS-MONTHAN AIR FORCE BASE
NAS    - NAVAL AIR STATION
         EL CENTRO NAS IS EL CENTRO NAVAL AIR STATION
N/A    - NOT AVAILABLE





USA.gov is the U.S. government's official web portal to all federal, state and local government web resources and services.